User: anonymous   Login
Location: Unspecified
(0.0000°N, 0.0000°E)
Time: 07:03:44
(UTC+00:00)
Language:

POLYITAN 1 - Orbit

View from above orbital plane
View from above orbital plane
View from above satellite
View from above satellite

Ground track
Ground track

The orbit data is extracted from the following two-line orbital elements,

1 40042U 14033AJ  18048.33391758  .00000358  00000-0  44780-4 0  9994
2 40042  97.9165 324.0382 0013975 203.3388 156.7195 14.88306230198886
Epoch (UTC): 17 February 2018 08:00:50
Eccentricity: 0.0013975
inclination: 97.9165°
perigee height: 593 km
apogee height: 613 km
right ascension of ascending node: 324.0382°
argument of perigee: 203.3388°
revolutions per day: 14.88306230
mean anomaly at epoch: 156.7195°
orbit number at epoch: 19888

The dashed part of the orbit path shows where the satellite is in the earth's shadow,  

DLR